• In Hungary
  • List of Countries
  • For 7 days
  • Water Temperature
  • Satellite Maps
  • Weather Map
  • News
  • Weather Widgets
  • user-avatar
    Login

    Hourly Weather Belmopan

    Today, 23 May, Wednesday

    Time Temperature Precipitation Wind Pressure Humidity
    00:00 +23°C° 0 mm 0 mps 750 mmHg 98%
    01:00 +23°C° 0.1 mm 0 mps 750 mmHg 98%
    02:00 +23°C° 0.1 mm 0 mps 750 mmHg 98%
    03:00 +23°C° 0.1 mm 0 mps 749 mmHg 98%
    04:00 +23°C° 0 mm 0 mps 750 mmHg 98%
    05:00 +23°C° 0 mm 0 mps 750 mmHg 97%
    06:00 +23°C° 0 mm 0 mps 750 mmHg 96%
    07:00 +28°C° 0 mm 1 mps 751 mmHg 84%
    08:00 +30°C° 0 mm 1 mps 751 mmHg 72%
    09:00 +33°C° 0 mm 1 mps 751 mmHg 60%
    10:00 +34°C° 0.1 mm 1 mps 751 mmHg 56%
    11:00 +36°C° 0.1 mm 1 mps 750 mmHg 51%
    12:00 +37°C° 0.1 mm 1 mps 750 mmHg 46%
    13:00 +36°C° 0.3 mm 1 mps 750 mmHg 52%
    14:00 +35°C° 0.3 mm 1 mps 749 mmHg 58%
    15:00 +34°C° 0.3 mm 1 mps 749 mmHg 64%
    16:00 +32°C° 1.2 mm 1 mps 749 mmHg 72%
    17:00 +30°C° 1.2 mm 1 mps 749 mmHg 80%
    18:00 +29°C° 1.2 mm 1 mps 749 mmHg 87%
    19:00 +28°C° 1 mm 1 mps 750 mmHg 90%
    20:00 +27°C° 1 mm 1 mps 750 mmHg 93%
    21:00 +24°C° 1 mm 0 mps 751 mmHg 96%
    22:00 +24°C° 0.3 mm 0 mps 751 mmHg 97%
    23:00 +24°C° 0.3 mm 0 mps 751 mmHg 97%

    Tomorrow, 24 May, Thursday

    Time Temperature Precipitation Wind Pressure Humidity
    00:00 +24°C° 0.3 mm 0 mps 751 mmHg 97%
    01:00 +24°C° 0 mm 0 mps 751 mmHg 97%
    02:00 +23°C° 0 mm 0 mps 750 mmHg 98%
    03:00 +23°C° 0 mm 0 mps 750 mmHg 98%
    04:00 +25°C° 0.1 mm 1 mps 750 mmHg 98%
    05:00 +25°C° 0.1 mm 1 mps 750 mmHg 98%
    06:00 +25°C° 0.1 mm 1 mps 751 mmHg 98%
    07:00 +27°C° 0 mm 1 mps 751 mmHg 86%
    08:00 +30°C° 0 mm 1 mps 751 mmHg 74%
    09:00 +32°C° 0 mm 2 mps 751 mmHg 62%
    10:00 +35°C° 0 mm 2 mps 751 mmHg 56%
    11:00 +36°C° 0 mm 2 mps 750 mmHg 49%
    12:00 +38°C° 0 mm 2 mps 750 mmHg 43%
    13:00 +38°C° 0.1 mm 2 mps 749 mmHg 45%
    14:00 +37°C° 0.1 mm 2 mps 749 mmHg 48%
    15:00 +37°C° 0.1 mm 2 mps 748 mmHg 51%
    16:00 +33°C° 0.9 mm 1 mps 748 mmHg 62%
    17:00 +31°C° 0.9 mm 1 mps 749 mmHg 72%
    18:00 +29°C° 0.9 mm 1 mps 749 mmHg 83%
    19:00 +28°C° 1 mm 1 mps 749 mmHg 88%
    20:00 +27°C° 1 mm 1 mps 750 mmHg 92%
    21:00 +24°C° 1 mm 0 mps 750 mmHg 96%
    22:00 +24°C° 0 mm 0 mps 750 mmHg 97%
    23:00 +24°C° 0 mm 0 mps 751 mmHg 98%

    Day after tomorrow, 25 May, Friday

    Time Temperature Precipitation Wind Pressure Humidity
    00:00 +25°C° 0 mm 1 mps 751 mmHg 98%
    01:00 +25°C° 0 mm 1 mps 750 mmHg 98%
    02:00 +25°C° 0 mm 1 mps 750 mmHg 98%
    03:00 +25°C° 0 mm 1 mps 749 mmHg 99%
    04:00 +25°C° 0 mm 1 mps 749 mmHg 98%
    05:00 +25°C° 0 mm 1 mps 749 mmHg 98%
    06:00 +25°C° 0 mm 1 mps 749 mmHg 98%
    07:00 +27°C° 0 mm 1 mps 749 mmHg 90%
    08:00 +28°C° 0 mm 2 mps 750 mmHg 82%
    09:00 +30°C° 0 mm 2 mps 750 mmHg 75%
    10:00 +31°C° 0.8 mm 2 mps 750 mmHg 75%
    11:00 +32°C° 0.8 mm 2 mps 749 mmHg 74%
    12:00 +33°C° 0.8 mm 1 mps 749 mmHg 74%
    13:00 +34°C° 0.7 mm 1 mps 748 mmHg 70%
    14:00 +35°C° 0.7 mm 2 mps 747 mmHg 66%
    15:00 +35°C° 0.7 mm 2 mps 746 mmHg 61%
    16:00 +33°C° 0.9 mm 1 mps 746 mmHg 67%
    17:00 +32°C° 0.9 mm 1 mps 747 mmHg 73%
    18:00 +30°C° 0.9 mm 1 mps 747 mmHg 79%
    19:00 +29°C° 0.8 mm 1 mps 747 mmHg 85%
    20:00 +27°C° 0.8 mm 1 mps 748 mmHg 91%
    21:00 +26°C° 0.8 mm 1 mps 749 mmHg 97%
    22:00 +26°C° 0 mm 1 mps 749 mmHg 97%
    23:00 +25°C° 0 mm 1 mps 749 mmHg 98%

    26 May, Saturday

    Time Temperature Precipitation Wind Pressure Humidity
    00:00 +25°C° 0 mm 1 mps 749 mmHg 98%
    01:00 +25°C° 0 mm 1 mps 748 mmHg 98%
    02:00 +24°C° 0 mm 1 mps 748 mmHg 99%
    03:00 +24°C° 0 mm 1 mps 748 mmHg 99%
    04:00 +24°C° 0 mm 1 mps 748 mmHg 98%
    05:00 +24°C° 0 mm 1 mps 748 mmHg 98%
    06:00 +24°C° 0 mm 1 mps 748 mmHg 98%
    07:00 +27°C° 0 mm 1 mps 748 mmHg 87%
    08:00 +29°C° 0 mm 1 mps 749 mmHg 77%
    09:00 +31°C° 0 mm 2 mps 749 mmHg 66%
    10:00 +34°C° 0 mm 2 mps 749 mmHg 59%
    11:00 +35°C° 0 mm 2 mps 748 mmHg 52%
    12:00 +37°C° 0 mm 2 mps 748 mmHg 46%
    13:00 +37°C° 0 mm 2 mps 747 mmHg 47%
    14:00 +37°C° 0 mm 2 mps 746 mmHg 47%
    15:00 +36°C° 0 mm 2 mps 745 mmHg 48%
    16:00 +34°C° 0.3 mm 1 mps 746 mmHg 56%
    17:00 +32°C° 0.3 mm 1 mps 746 mmHg 64%
    18:00 +31°C° 0.3 mm 1 mps 746 mmHg 72%
    19:00 +30°C° 0.3 mm 1 mps 747 mmHg 78%
    20:00 +28°C° 0.3 mm 1 mps 747 mmHg 84%
    21:00 +25°C° 0.3 mm 0 mps 748 mmHg 90%
    22:00 +25°C° 0.6 mm 0 mps 748 mmHg 92%
    23:00 +24°C° 0.6 mm 0 mps 748 mmHg 93%

    27 May, Sunday

    Time Temperature Precipitation Wind Pressure Humidity
    00:00 +24°C° 0.6 mm 0 mps 748 mmHg 94%
    01:00 +24°C° 0.4 mm 0 mps 748 mmHg 95%
    02:00 +23°C° 0.4 mm 0 mps 748 mmHg 96%
    03:00 +23°C° 0.4 mm 0 mps 748 mmHg 96%
    04:00 +23°C° 0.2 mm 0 mps 748 mmHg 96%
    05:00 +25°C° 0.2 mm 1 mps 748 mmHg 96%
    06:00 +25°C° 0.2 mm 1 mps 748 mmHg 95%
    07:00 +28°C° 0.1 mm 1 mps 749 mmHg 83%
    08:00 +31°C° 0.1 mm 1 mps 749 mmHg 71%
    09:00 +34°C° 0.1 mm 1 mps 749 mmHg 59%
    10:00 +35°C° 0.4 mm 1 mps 749 mmHg 53%
    11:00 +35°C° 0.4 mm 0 mps 748 mmHg 47%
    12:00 +37°C° 0.4 mm 0 mps 748 mmHg 42%
    13:00 +39°C° 0.1 mm 1 mps 747 mmHg 43%
    14:00 +37°C° 0.1 mm 1 mps 747 mmHg 44%
    15:00 +36°C° 0.1 mm 1 mps 746 mmHg 45%
    16:00 +34°C° 0.9 mm 1 mps 746 mmHg 56%
    17:00 +32°C° 0.9 mm 1 mps 746 mmHg 66%
    18:00 +30°C° 0.9 mm 2 mps 747 mmHg 76%
    19:00 +29°C° 1 mm 1 mps 747 mmHg 81%
    20:00 +28°C° 1 mm 1 mps 748 mmHg 87%
    21:00 +27°C° 1 mm 1 mps 749 mmHg 92%
    22:00 +27°C° 0.8 mm 1 mps 749 mmHg 93%
    23:00 +26°C° 0.8 mm 1 mps 749 mmHg 94%

    28 May, Monday

    Time Temperature Precipitation Wind Pressure Humidity
    00:00 +26°C° 0.8 mm 1 mps 749 mmHg 95%
    01:00 +24°C° 0.2 mm 0 mps 749 mmHg 95%
    02:00 +24°C° 0.2 mm 0 mps 748 mmHg 96%
    03:00 +23°C° 0.2 mm 0 mps 748 mmHg 96%
    04:00 +24°C° 0 mm 0 mps 748 mmHg 95%
    05:00 +24°C° 0 mm 0 mps 748 mmHg 95%
    06:00 +24°C° 0 mm 0 mps 749 mmHg 94%
    07:00 +27°C° 0 mm 0 mps 749 mmHg 82%
    08:00 +29°C° 0 mm 0 mps 749 mmHg 69%
    09:00 +32°C° 0 mm 0 mps 750 mmHg 56%
    10:00 +34°C° 0 mm 0 mps 749 mmHg 50%
    11:00 +37°C° 0 mm 1 mps 749 mmHg 45%
    12:00 +40°C° 0 mm 1 mps 748 mmHg 39%
    13:00 +37°C° 0.1 mm 1 mps 748 mmHg 44%
    14:00 +36°C° 0.1 mm 1 mps 747 mmHg 49%
    15:00 +35°C° 0.1 mm 1 mps 746 mmHg 55%
    16:00 +35°C° 0.4 mm 2 mps 747 mmHg 59%
    17:00 +34°C° 0.4 mm 2 mps 747 mmHg 63%
    18:00 +32°C° 0.4 mm 2 mps 747 mmHg 67%
    19:00 +31°C° 0 mm 1 mps 748 mmHg 73%
    20:00 +29°C° 0 mm 1 mps 748 mmHg 79%
    21:00 +28°C° 0 mm 1 mps 749 mmHg 85%
    22:00 +27°C° 0 mm 1 mps 749 mmHg 87%
    23:00 +27°C° 0 mm 1 mps 749 mmHg 90%
    Show more